Dati Storici

Data ora Umidita' aria (%) Temperatura aria (°C) Rad globale (W/m²) Gonioanemometro (°) Tacoanemometro (m/s) Pioggia (mm)
07-06-2020 06:50 97.7 % 19.441 -79.598 1.987 0 0
07-06-2020 06:40 97.7 % 18.739 -81.599 2.887 0 0
07-06-2020 06:30 97.7 % 18.685 -75.547 0.852 0 0
07-06-2020 06:20 97.7 % 18.479 -78.783 2.091 0 0
07-06-2020 06:10 97.7 % 18.318 -80.151 0.917 0 0
07-06-2020 06:00 97.7 % 18.263 -51.619 1.123 0 0
07-06-2020 05:50 97.7 % 18.129 -78.744 2.394 0 0
07-06-2020 05:40 97.7 % 18.187 -51.713 1.412 0 0
07-06-2020 05:30 97.7 % 18.113 -80.55 1.625 0 0
07-06-2020 05:20 97.7 % 18.057 -81.185 0.813 0 0
07-06-2020 05:10 97.7 % 18.046 -76.88 0.909 0 0
07-06-2020 05:00 97.7 % 18.398 -38.228 0.457 0 0
07-06-2020 04:50 97.7 % 18.92 -76.101 1.065 0 0
07-06-2020 04:40 97.7 % 19.082 -74.656 1.568 0 0
07-06-2020 04:30 97.7 % 19.273 -24.656 0.794 0 0
07-06-2020 04:20 97.7 % 19.167 -66.453 0.61 0 0
07-06-2020 04:10 97.7 % 19.021 -61.303 0.203 0 0
07-06-2020 04:00 97.7 % 19.104 -62.467 -0.006 0 0
07-06-2020 03:50 97.7 % 19.114 -68.468 1.119 0 0
07-06-2020 03:40 97.7 % 19.14 -48.977 1.295 0 0

I dati sono presentati in modo automatico a scopo informativo. In seguito a verifica i dati possono subire modifiche o essere invalidati e non riportati negli archivi definitivi.